Other Public Products
Issued by NWS Grand Forks, ND

Home | Current Version | Previous Version | Text Only | Print | Product List | Glossary Off
Versions: 1 2 3 4 5 6 7 8 9 10 11 12 13 14 15 16 17 18 19 20 21 22 23 24 25 26 27 28 29 30 31 32 33 34 35 36 37 38 39 40 41 42 43 44 45 46 47 48 49 50

649
FPUS83 KFGF 111831
OPUFGF
PRAIRIE TO PINES WEATHER ROUNDUP
NATIONAL WEATHER SERVICE EASTERN NORTH DAKOTA/GRAND FORKS ND
1200 PM CST THU FEB 11 2016

 **SATELLITE DATA USED TO AUGMENT SKY COVER AT AUTOMATED STATIONS**
 *****  WEATHER ACROSS EASTERN NORTH DAKOTA  *****

CITY           SKY/WX    TMP DP  RH WIND       PRES   REMARKS
GRAND FORKS    CLOUDY    12   3  67 SW7       30.25F WCI   1
6HR MIN TEMP:   5; 6HR MAX TEMP:  12; 6HR PCP: TRACE;

GRAND FORKS AF CLOUDY    12   3  66 W5        30.24S WCI   4
GRAND CITY NWS NOT AVBL
BUXTON           N/A     12   5  72 S3          N/A
DEVILS LAKE    FLURRIES  10   5  80 N6        30.19S WCI   0
6HR MIN TEMP:   5; 6HR MAX TEMP:  11; 6HR PCP: TRACE;

FARGO          CLOUDY    14  -1  51 CALM      30.24F
6HR MIN TEMP:   5; 6HR MAX TEMP:  14;

WAHPETON ARPT  CLOUDY    12   5  73 SE6       30.24F WCI   3
$$

 *****  WEATHER ACROSS CENTRAL AND WESTERN NORTH DAKOTA  *****

CITY           SKY/WX    TMP DP  RH WIND       PRES   REMARKS
JAMESTOWN      CLOUDY    12   8  84 S3        30.17R
6HR MIN TEMP:   7; 6HR MAX TEMP:  12; 6HR PCP: TRACE;

BISMARCK       LGT SNOW  25  18  74 NE3       30.13F
6HR MIN TEMP:  19; 6HR MAX TEMP:  25; 6HR PCP:  0.06;

MINOT          LGT SNOW  19   9  65 N3        30.17S
6HR MIN TEMP:  14; 6HR MAX TEMP:  19; 6HR PCP: TRACE;

MINOT AFB      FLURRIES  17  12  80 NE2       30.17R
6HR MIN TEMP:  11; 6HR MAX TEMP:  17; 6HR PCP: TRACE;

GARRISON         N/A     18  13  80 E6        30.14R WCI  10
6HR MIN TEMP:  15; 6HR MAX TEMP:  18; 6HR PCP:  0.07;

WILLISTON      LGT SNOW  24  20  84 E5        30.15S VSB 3/4 WCI  18
6HR MIN TEMP:  22; 6HR MAX TEMP:  24; 6HR PCP:  0.10;

DICKINSON      LGT SNOW  22  18  85 NE13      30.04R FOG     WCI  10
6HR MIN TEMP:  21; 6HR MAX TEMP:  25; 6HR PCP:  0.10;

HETTINGER      SNOW      31  28  89 E7        30.02R VSB 1/2 WCI  24
6HR MIN TEMP:  28; 6HR MAX TEMP:  30; 6HR PCP: TRACE;

$$

 *****  OTHER OBSERVATIONS NORTHEAST NORTH DAKOTA  *****

CITY           SKY/WX    TMP DP  RH WIND       PRES   REMARKS
WALHALLA       FLURRIES  14   9  79 NW6       30.23F WCI   5
LANGDON        CLOUDY    12   5  73 NW7       30.17S WCI   2
CAVALIER       MOCLDY    14   7  73 CALM      30.24S
GRAFTON        FLURRIES  12   7  79 SW6       30.26S WCI   3
CANDO          CLOUDY    10   7  85 NE5       30.21S WCI   2
FORT TOTTEN      N/A     15   9  78 NE2       29.95S
ROLLA          CLOUDY     9   5  85 N7        30.17S WCI  -3
RUGBY          MOCLDY    12   7  79 NE5       30.18S WCI   4
 ***** THE ABOVE OBSERVATIONS ARE NON NWS ARE NOT QUALITY
        CONTROLLED AND MAY MIS-REPORT RAIN FOR SNOW...
$$

 *****  OTHER OBSERVATIONS SOUTHEAST NORTH DAKOTA *****

CITY           SKY/WX    TMP DP  RH WIND       PRES   REMARKS
COOPERSTOWN    NOT AVBL
VALLEY CITY    CLOUDY    10   5  79 E3        30.21S
OAKES          CLOUDY    14  10  85 SE5       30.18S WCI   6
GWINNER        CLOUDY    14  10  85 E7        30.20S WCI   4
BUFFALO          N/A     10   1  66 CALM        N/A
WYNDMERE         N/A     10   7  85 SE6         N/A  WCI   1
 ***** THE ABOVE OBSERVATIONS ARE NON NWS ARE NOT QUALITY
       CONTROLLED AND MAY MIS-REPORT RAIN FOR SNOW...
$$

  *****  WEATHER ACROSS NORTHERN MINNESOTA  *****

CITY           SKY/WX    TMP DP  RH WIND       PRES   REMARKS
FLAG ISLAND    SUNNY      1  -6  71 S8        30.17F WCI -12
WARROAD        SUNNY      9   0  66 W12       30.19F WCI  -6
ROSEAU         SUNNY      7   0  72 NW3       30.21S
HALLOCK        LGT SNOW  10   5  79 SW6       30.23F WCI   1
THF RVR FALLS  CLOUDY     9   1  72 SW7       30.22F WCI  -3
6HR MIN TEMP:  -8; 6HR MAX TEMP:  55;

HALSTAD          N/A     14  10  86 CALM        N/A
FOSSTON        CLOUDY     9  -2  61 S5        30.21F WCI   0
BAUDETTE       CLOUDY     8  -7  50 W7        30.17F WCI  -3
6HR MIN TEMP: -12; 6HR MAX TEMP:   8;

WASKISH        CLOUDY     9  -2  61 SW8       30.19F WCI  -4
CROOKSTON      MOSUNNY   10   3  72 SW5       30.25F WCI   2
$$
  *****  WEATHER ACROSS CENTRAL AND WEST MINNESOTA  *****

CITY           SKY/WX    TMP DP  RH WIND       PRES   REMARKS
BEMIDJI        CLOUDY     8  -3  60 SW5       30.18F WCI  -1
PARK RAPIDS    CLOUDY     7  -3  64 CALM      30.19F
6HR MIN TEMP: -17; 6HR MAX TEMP:   7;

WADENA         CLOUDY    10   1  67 SW5       30.20S WCI   2
DETROIT LAKES  CLOUDY    12   5  73 CALM      30.20F
MOORHEAD       CLOUDY    10   0  61 CALM      30.25S
FERGUS FALLS   FLURRIES  12   5  73 S6        30.26F WCI   3
ELBOW LAKE     CLOUDY    13   5  71 S8        30.23S HAZE    WCI   1
6HR MIN TEMP:   0; 6HR MAX TEMP:  12;

MORRIS MN      CLOUDY    12   7  79 S9        30.23S WCI   0
STAPLES        CLOUDY     9  -2  61 S5        30.21F WCI   0
WHEATON        CLOUDY    14   9  79 S5        30.25F WCI   6
$$
  *****  WEATHER ELSEWHERE ACROSS MINNESOTA  *****

CITY           SKY/WX    TMP DP  RH WIND       PRES   REMARKS
DULUTH         PTSUNNY    7  -7  52 W8        30.19F WCI  -6
6HR MIN TEMP: -11; 6HR MAX TEMP:   7;

INTRNTL FALLS  CLOUDY     7  -7  52 W6        30.18F WCI  -3
6HR MIN TEMP: -10; 6HR MAX TEMP:   7;

ELY            PTSUNNY    5  -6  61 SW5       30.14F WCI  -4
CLOQUET        CLOUDY     9  -9  43 SW3       30.20F
BRAINERD       CLOUDY     8  -4  58 SW6       30.23F WCI  -2
6HR MIN TEMP: -17; 6HR MAX TEMP:   8;

HIBBING        CLOUDY     5  -7  57 NW5       30.19F WCI  -4
6HR MIN TEMP: -23; 6HR MAX TEMP:   5;

ALEXANDRIA     CLOUDY    12   3  67 SW7       30.21F WCI   1
6HR MIN TEMP:   0; 6HR MAX TEMP:  12;

SAINT CLOUD    CLOUDY    10  -2  58 S8        30.27F WCI  -2
6HR MIN TEMP:  -5; 6HR MAX TEMP:  11;

MINNEAPOLIS    CLOUDY    13  -4  46 S5        30.31F WCI   5
6HR MIN TEMP:   3; 6HR MAX TEMP:  13;

$$

  *****  WEATHER ACROSS SOUTH DAKOTA  *****

CITY           SKY/WX    TMP DP  RH WIND       PRES   REMARKS
SIOUX FALLS    CLOUDY    16   9  74 S15       30.20F WCI   1
6HR MIN TEMP:  13; 6HR MAX TEMP:  16; 6HR PCP: TRACE;

BROOKINGS      LGT SNOW  16   9  73 S15       30.16F WCI   1
WATERTOWN      LGT SNOW  15   9  76 S13       30.14F WCI   1
6HR MIN TEMP:  12; 6HR MAX TEMP:  15; 6HR PCP: TRACE;

HURON          LGT SNOW  21  16  81 S9        30.17S WCI  11
6HR MIN TEMP:  16; 6HR MAX TEMP:  21; 6HR PCP: TRACE;

SISSETON         N/A     12   7  80 S8        30.21S WCI   0
ABERDEEN       LGT SNOW  20  15  81 S7        30.18S WCI  11
6HR MIN TEMP:  15; 6HR MAX TEMP:  21; 6HR PCP:  0.02;

MITCHELL       LGT SNOW  21  17  84 S8        30.19R VSB 3/4 WCI  11
PIERRE         CLOUDY    28  24  85 SE10      30.09F WCI  19
6HR MIN TEMP:  22; 6HR MAX TEMP:  28; 6HR PCP: TRACE;

MOBRIDGE       LGT SNOW  26  22  84 SE10      30.07F FOG     WCI  16
RAPID CITY     SUNNY     57  27  31 NW12G18   29.99F
$$

  *****  SOME WEATHER IN NEARBY STATES *****

CITY           SKY/WX    TMP DP  RH WIND       PRES   REMARKS
GLASGOW MT     CLOUDY    30  24  78 NE7       30.14R WCI  23
6HR MIN TEMP:  28; 6HR MAX TEMP:  30; 6HR PCP:  0.03;

GREAT FALLS MT PTSUNNY   54  25  32 W16G24    30.18R
6HR MIN TEMP:  32; 6HR MAX TEMP:  54;

CHEYENNE WY    CLOUDY    51  19  28 NW23G33   30.15R
6HR MIN TEMP:  43; 6HR MAX TEMP:  52;

SCOTTSBLUFF NE MOSUNNY   55  25  31 NW20G25   30.11R
6HR MIN TEMP:  32; 6HR MAX TEMP:  56;

OMAHA NE       CLOUDY    19   7  59 SE5       30.31F WCI  12
6HR MIN TEMP:  14; 6HR MAX TEMP:  19;

DES MOINES IA  CLOUDY    16   0  49 S5        30.34F WCI   9
6HR MIN TEMP:   7; 6HR MAX TEMP:  16;

DAVENPORT IA   SUNNY     18   0  45 CALM      30.35F
6HR MIN TEMP:   4; 6HR MAX TEMP:  19;

CHICAGO IL     MOSUNNY   17   1  49 VRB3      30.32S
6HR MIN TEMP:   7; 6HR MAX TEMP:  17;

EAU CLAIRE WI  SUNNY      7  -6  55 SW6       30.30F WCI  -3
6HR MIN TEMP: -10; 6HR MAX TEMP:   8; 6HR PCP: TRACE;

LA CROSSE WI   SUNNY     12  -2  53 CALM      30.35F
6HR MIN TEMP:  -6; 6HR MAX TEMP:  12;

$$

  *****  SOME NATIONAL WEATHER *****

CITY           SKY/WX    TMP DP  RH WIND       PRES   REMARKS
LA GUARDIA NY  CLOUDY    26   0  32 W29G38    29.90F WCI  10
6HR MIN TEMP:  24; 6HR MAX TEMP:  27;

RALEIGH NC     SUNNY     37   5  26 W12G22    30.17F              C1F1C2F2C3F3C4F4C5F5C6F6C7F7C8F8C9F9CaFaCbFbCcFcCdFdCe!



USA.gov is the U.S. government's official web portal to all federal, state and local government web resources and services.